Galveston, TX

1:53 AM CST on January 16, 2018 (GMT -0600)
Scholes International At Galveston

Weather History for KGLS - May, 2012

Change the Weather History Date:

Monday, May 28, 2012

  Actual Average Record
Temperature  
Mean Temperature 83 °F 80 °F  
Max Temperature 87 °F 86 °F 90 °F (1958)
Min Temperature 79 °F 75 °F 62 °F (1901)
Degree Days  
Heating Degree Days 0 0  
Month to date heating degree days 0 0  
Since 1 July heating degree days 630 1009  
Cooling Degree Days 18 15  
Month to date cooling degree days 420 346  
Year to date cooling degree days 974 589  
Growing Degree Days 32 (Base 50)    
Moisture  
Dew Point 73 °F    
Average Humidity 75    
Maximum Humidity 85    
Minimum Humidity 65    
Precipitation  
Precipitation 0.00 in 0.23 in 2.11 in (2014)
Month to date precipitation 3.54 3.73  
Year to date precipitation 20.82 16.71  
Snow  
Snow 0.00 in - - ()
Month to date snowfall 0.0  
Since 1 July snowfall 0.0 0.0  
Snow Depth 0.00 in    
Sea Level Pressure  
Sea Level Pressure 29.92 in    
Wind  
Wind Speed 12 mph (South)    
Max Wind Speed 16 mph    
Max Gust Speed 20 mph    
Visibility 10 miles    
Events      
T = Trace of Precipitation, MM = Missing Value Source: NWS Daily Summary

Daily Weather History Graph

Daily Weather History Graph

Search for Another Location

Airport or City:

Trip Planner

Search our weather history database for the weather conditions in past years. The results will help you decide how hot, cold, wet, or windy it might be!

Date:

Astronomy

May. 28, 2012 Rise Set
Actual Time 6:21 AM CDT 8:12 PM CDT
Civil Twilight 5:54 AM CDT 8:39 PM CDT
Nautical Twilight 5:22 AM CDT 9:11 PM CDT
Astronomical Twilight 4:48 AM CDT 9:45 PM CDT
Moon 1:10 PM CDT (5/28) 1:09 AM CDT (5/28)
Length of Visible Light 14h 44m
Length of Day
13h 51m
Waxing Crescent, 49% of the Moon is Illuminated
May 28
Waxing Crescent
May 28
First Quarter
Jun 4
Full
Jun 11
Last Quarter
Jun 19
New

Hourly Weather History & Observations

Time (CDT) Temp. Heat Index Dew Point Humidity Pressure Visibility Wind Dir Wind Speed Gust Speed Precip Events Conditions
12:52 AM 79.0 °F - 73.0 °F 82% 29.93 in 10.0 mi SSE 10.4 mph - N/A   Partly Cloudy
1:52 AM 79.0 °F - 72.0 °F 79% 29.91 in 10.0 mi SSE 13.8 mph - N/A   Clear
2:52 AM 79.0 °F - 73.0 °F 82% 29.90 in 10.0 mi SSE 11.5 mph - N/A   Partly Cloudy
3:52 AM 79.0 °F - 73.0 °F 82% 29.91 in 10.0 mi South 11.5 mph - N/A   Partly Cloudy
4:52 AM 79.0 °F - 73.0 °F 82% 29.92 in 10.0 mi South 11.5 mph - N/A   Partly Cloudy
5:52 AM 79.0 °F - 72.0 °F 79% 29.92 in 10.0 mi South 10.4 mph - N/A   Clear
6:52 AM 79.0 °F - 72.0 °F 79% 29.94 in 10.0 mi South 9.2 mph - N/A   Partly Cloudy
7:52 AM 81.0 °F 85.8 °F 73.0 °F 77% 29.94 in 10.0 mi South 10.4 mph - N/A   Partly Cloudy
8:52 AM 82.9 °F 88.8 °F 73.0 °F 72% 29.95 in 10.0 mi South 11.5 mph - N/A   Partly Cloudy
9:52 AM 84.0 °F 90.2 °F 73.0 °F 69% 29.96 in 10.0 mi South 11.5 mph - N/A   Partly Cloudy
10:52 AM 84.0 °F 90.2 °F 73.0 °F 69% 29.96 in 10.0 mi South 11.5 mph - N/A   Mostly Cloudy
11:48 AM 84.2 °F 90.9 °F 73.4 °F 70% 29.95 in 10.0 mi South 9.2 mph - N/A   Partly Cloudy
11:52 AM 84.0 °F 91.2 °F 73.9 °F 72% 29.96 in 10.0 mi SSW 9.2 mph - N/A   Scattered Clouds
12:52 PM 84.9 °F 92.1 °F 73.9 °F 69% 29.95 in 10.0 mi South 10.4 mph - N/A   Scattered Clouds
1:52 PM 86.0 °F 93.8 °F 73.9 °F 67% 29.94 in 10.0 mi South 10.4 mph - N/A   Scattered Clouds
2:52 PM 84.9 °F 91.4 °F 73.0 °F 67% 29.92 in 10.0 mi South 11.5 mph - N/A   Scattered Clouds
3:52 PM 84.9 °F 91.4 °F 73.0 °F 67% 29.91 in 10.0 mi South 12.7 mph - N/A   Scattered Clouds
4:52 PM 84.9 °F 91.4 °F 73.0 °F 67% 29.90 in 10.0 mi South 15.0 mph - N/A   Partly Cloudy
5:52 PM 84.0 °F 90.2 °F 73.0 °F 69% 29.89 in 10.0 mi South 13.8 mph - N/A   Clear
6:52 PM 82.9 °F 88.8 °F 73.0 °F 72% 29.88 in 10.0 mi South 11.5 mph - N/A   Clear
7:52 PM 81.0 °F 85.8 °F 73.0 °F 77% 29.88 in 10.0 mi South 12.7 mph - N/A   Clear
8:52 PM 80.1 °F 84.2 °F 73.0 °F 79% 29.88 in 10.0 mi South 13.8 mph - N/A   Clear
9:52 PM 80.1 °F 84.2 °F 73.0 °F 79% 29.89 in 10.0 mi South 15.0 mph - N/A   Clear
10:52 PM 80.1 °F 83.8 °F 72.0 °F 76% 29.91 in 10.0 mi South 13.8 mph - N/A   Clear
11:52 PM 80.1 °F 84.2 °F 73.0 °F 79% 29.93 in 10.0 mi South 11.5 mph - N/A   Scattered Clouds